Location: Bj�dstrup
(56.1016°N, 10.1644°E)
Time: 05:58:56
(UTC+00:00)

Daily predictions for brighter satellites

Satellite Brightness Start Highest point End
(mag) Time Altitude Azimuth Time Altitude Azimuth Time Altitude Azimuth
ATLAS 3B R/B 4.2 01:56:21 31° NE 01:56:21 31° NE 02:00:16 10° ENE
Cosmos 2297 Rocket 4.1 02:19:28 25° ENE 02:19:28 25° ENE 02:22:13 10° NE
CENTAUR R/B 3.3 02:30:27 65° ENE 02:30:27 65° ENE 02:38:08 10° ESE
Cosmos 2344 4.2 02:31:54 57° N 02:32:42 59° NNE 02:43:13 10° E
NOSS 3-2 (A) 4.4 02:42:10 56° SE 02:42:10 56° SE 02:48:29 10° SE
Cosmos 2082 Rocket 4.4 02:44:50 17° N 02:44:50 17° N 02:47:17 10° NE
USA 238 DEB 4.1 02:56:23 60° SE 02:56:23 60° SE 03:02:18 10° SE
USA 238 4.1 02:56:27 60° SE 02:56:27 60° SE 03:02:24 10° SE
Cosmos 1943 4.1 03:03:16 46° ENE 03:03:16 46° ENE 03:08:15 10° ESE
Lacrosse 4 Rocket 3.6 03:12:20 24° E 03:12:20 24° E 03:14:31 10° E
Cosmos 2082 4.5 03:20:03 45° SE 03:20:48 48° ESE 03:26:18 10° NE
Cosmos 2227 Rocket 2.5 03:26:51 64° NE 03:26:51 64° NE 03:31:42 10° NE
Cosmos 2219 3.5 03:32:59 61° NNE 03:32:59 61° NNE 03:37:46 10° NE
Nadezhda 1 Rocket 4.0 03:30:46 10° NNW 03:37:13 86° ENE 03:43:34 10° SSE
COSMO-SKYMED 1 3.6 03:33:38 10° SE 03:37:44 43° ENE 03:37:46 43° ENE
CZ-2C R/B 3.7 03:38:02 10° NNE 03:40:24 30° NNE 03:40:24 30° NNE
ATLAS 3B R/B 3.0 03:43:36 48° NNW 03:45:24 63° NNE 03:52:24 10° ESE
Timation 2 Rocket 3.9 03:47:19 69° NW 03:47:22 69° NW 03:54:02 10° NE
Cosmos 1354 Rocket 4.2 03:47:58 58° SSE 03:48:45 67° ESE 03:54:00 10° NNE
IDEFIX/ARIANE 42P 4.4 03:45:21 10° N 03:46:51 18° N 03:46:51 18° N
NOSS 2-2 (D) 4.4 03:51:54 41° ENE 03:51:54 41° ENE 03:54:56 10° NE
USA 305 4.2 03:52:10 35° SE 03:52:10 35° SE 03:55:46 10° E
In-Cosmos 22 Rocket 4.4 03:53:30 54° N 03:53:30 54° N 03:57:50 10° NNE
Cosmos 1680 Rocket 4.5 03:54:28 26° N 03:57:01 45° NE 04:02:07 10° ESE
ADEOS II 4.4 03:53:25 10° N 03:53:54 12° N 03:53:54 12° N
USA 229 DEB 4.0 03:56:39 48° NW 03:57:40 52° NNW 04:04:42 10° ENE
USA 229 3.9 03:56:44 48° NW 03:57:45 52° NNW 04:04:48 10° ENE
Cosmos 489 Rocket 4.3 03:57:21 55° NW 03:58:50 80° WSW 04:05:09 10° SSE
Cosmos 968 Rocket 3.8 04:00:10 54° N 04:00:10 54° N 04:04:26 10° NNE
USA 306 4.0 03:59:57 38° SSE 03:59:57 38° SSE 04:03:53 10° E
NOSS 3-2 (C) 3.9 03:58:44 54° W 04:00:21 66° SW 04:08:34 10° SSE
Cosmos 2297 Rocket 2.3 04:01:17 59° NNW 04:01:17 59° NNW 04:06:36 10° NNE
ALOS 2.6 03:56:19 10° NNE 04:00:59 64° ESE 04:05:14 12° S
PAYLOAD A 4.2 03:57:46 10° NNE 04:02:32 60° NNW 04:02:32 60° NNW
Cosmos 1538 Rocket 3.9 04:03:20 78° WNW 04:03:36 81° WSW 04:08:55 10° SSE
NOSS 3-1 (A) 3.8 04:10:19 45° NW 04:11:32 51° NNW 04:18:39 10° ENE
deb Chang Zheng 4 4.3 04:08:49 10° NNE 04:13:04 52° ESE 04:17:19 10° S
NOSS 3-1 (C) 4.1 04:12:08 40° NW 04:13:43 47° N 04:20:53 10° ENE
Cosmos 2084 4.3 04:15:49 39° S 04:15:49 39° S 04:19:03 10° SSE
Cosmos 1484 Rocket 4.1 04:12:56 10° NNE 04:14:56 30° NNE 04:14:56 30° NNE
ATLAS CENTAUR R/B 2.0 04:18:22 41° NNE 04:18:23 41° NNE 04:22:00 10° E
CENTAUR R/B 3.2 04:17:39 41° WNW 04:20:25 57° SW 04:28:54 10° SSE
CZ-4B R/B 4.0 04:17:16 10° NNE 04:20:57 63° ESE 04:22:31 31° S
Cosmos 1633 4.2 04:18:25 10° SSE 04:21:39 34° E 04:24:54 10° NNE
Cosmos 1745 Rocket 3.9 04:16:39 10° SSW 04:22:56 79° WNW 04:29:21 10° N
SL-08 ROCKET BODY 4.3 04:17:44 10° SSW 04:23:50 68° WNW 04:30:02 10° N
Cosmos 158 Rocket 3.9 04:21:54 35° NNW 04:23:56 74° ENE 04:28:51 10° SE
Cosmos 1933 3.2 04:24:49 70° N 04:25:17 90° E 04:29:24 10° S
Cosmos 2263 Rocket 3.3 04:20:13 10° S 04:25:35 45° ESE 04:31:00 10° NE
SKYMED 2 3.4 04:21:25 10° SSE 04:25:46 78° WSW 04:26:23 63° NW
Cosmos 2181 Rocket 4.0 04:22:13 10° N 04:28:34 82° E 04:34:45 10° SSE
Cosmos 2082 Rocket 4.0 04:26:40 15° NNW 04:29:33 21° NNE 04:33:52 10° ENE
MOS 1 Rocket 4.0 04:25:14 10° SE 04:29:53 56° ENE 04:34:53 10° N
NOSS 3-2 (A) 4.5 04:29:36 36° WSW 04:30:50 38° WSW 04:38:17 10° S
ARGOS Delta rocket 3.9 04:26:05 10° N 04:31:27 73° WNW 04:36:30 10° SSW
EXPRESS MD2 4.4 04:32:33 31° SSW 04:33:26 35° SSE 04:38:45 10° E
Cosmos 1603 3.8 04:34:05 45° W 04:35:07 51° WSW 04:40:32 10° S
NOSS 2-2 (C) 3.2 04:36:45 66° NW 04:36:55 67° NNW 04:41:22 10° NE
CBERS 1 LM4 rocket 4.5 04:39:28 10° N 04:44:04 50° WNW 04:45:21 39° WSW
USA 238 DEB 4.5 04:43:52 31° W 04:45:15 33° WSW 04:51:43 10° S
Cosmos 1782 2.9 04:42:17 17° N 04:45:17 75° ENE 04:49:19 10° SSE
USA 238 4.5 04:43:56 31° W 04:45:20 34° WSW 04:51:50 10° S
FENGYUN 3A 3.6 04:40:12 10° NNE 04:45:36 65° WNW 04:50:57 10° SSW
Cosmos 1943 3.4 04:45:08 37° WNW 04:46:52 48° WSW 04:52:18 10° S
Cosmos 1151 Rocket 2.8 04:45:20 28° NNW 04:47:31 71° W 04:51:46 10° S
FALCON 9 DEB 4.5 04:46:45 28° SSW 04:47:46 34° SSE 04:50:58 10° E
SL-4 R/B 3.7 04:45:40 16° SSW 04:47:50 25° SSE 04:50:57 10° E
Cosmos 2344 4.2 04:41:55 24° NW 04:48:02 82° SW 05:00:12 10° SE
Cosmos 1709 Rocket 4.0 04:42:27 10° SSW 04:48:50 85° WNW 04:55:17 10° N
Lacrosse 4 Rocket 1.5 04:48:40 49° W 04:49:27 58° SW 04:53:44 10° SSE
CZ-2C R/B 3.8 04:45:11 10° SE 04:50:22 44° ENE 04:55:28 10° N
Meteor 1-31 Rocket 2.6 04:47:23 10° N 04:51:16 65° WNW 04:55:04 10° SSW
Cosmos 1833 Rocket 4.2 04:47:40 14° NNW 04:51:44 29° NNE 04:56:38 10° E
Cosmos 1328 Rocket 3.4 04:48:39 19° NNW 04:51:49 73° W 04:56:13 10° S
Cosmos 2151 2.9 04:48:57 10° SSW 04:53:06 61° WNW 04:57:18 10° N
USA 307 3.4 04:52:14 31° SW 04:54:04 55° SSE 04:58:18 10° E
ARIANE 5 R/B 4.5 04:51:50 10° N 04:53:04 13° NNW 04:53:04 13° NNW
Cosmos 1461 3.8 04:57:23 33° WSW 04:57:56 34° WSW 05:02:06 10° S
USA 308 3.3 04:58:07 28° SW 05:00:10 57° SSE 05:04:24 10° E
Okean 3 Rocket 3.4 04:56:59 10° SSW 05:01:22 84° W 05:05:49 10° N
Cosmos 1503 Rocket 4.4 05:00:22 31° W 05:02:06 40° NW 05:07:04 10° NNE
Cosmos 2082 4.0 05:01:59 25° WSW 05:05:00 48° NW 05:10:35 10° NNE
Timation 1 Rocket 4.3 04:59:26 11° SW 05:05:15 70° NW 05:11:18 10° NE
Cosmos 1184 Rocket 2.9 05:02:56 10° S 05:06:12 75° E 05:09:30 10° NNE
Gbstr 26 Del rocket 3.7 05:05:51 27° SW 05:07:02 34° SSW 05:10:35 10° SE
CZ-4B R/B 3.0 05:02:53 10° NNE 05:07:25 80° WNW 05:11:55 10° SSW
Cosmos 2227 4.3 05:03:02 10° SSW 05:08:40 82° ESE 05:14:20 10° NE
Cosmos 923 Rocket 4.1 05:06:01 21° NW 05:09:22 56° WSW 05:14:32 10° S
Cosmos 1766 Rocket 3.5 05:05:28 10° SSW 05:09:56 76° WNW 05:14:28 10° N
Cosmos 2227 Rocket 2.9 05:08:43 27° WNW 05:10:39 33° NW 05:15:47 10° NNE
SJ 16-02 1.9 05:07:30 10° S 05:11:52 61° ESE 05:16:16 10° NNE
COSMO-SKYMED 1 3.3 05:10:10 10° SSW 05:14:02 31° W 05:14:57 28° WNW
Cosmos 1441 Rocket 3.2 05:10:22 10° SSW 05:14:04 50° WNW 05:17:46 10° N
ADEOS 3.8 05:09:31 10° N 05:14:30 46° WNW 05:19:28 10° SW
Cosmos 2074 Rocket 4.3 05:10:10 10° S 05:16:19 70° E 05:22:30 10° NNE
Cosmos 2219 4.2 05:14:56 24° WNW 05:16:57 29° NNW 05:21:58 10° NNE
NOSS 2-2 (E) 4.0 05:15:51 30° WNW 05:17:21 43° NNW 05:22:01 10° NE
Cosmos 1812 3.0 05:15:37 10° N 05:19:28 68° ENE 05:23:18 10° SSE
CZ-2C R/B 3.7 05:17:05 10° N 05:19:46 19° NW 05:19:46 19° NW
Meteor 2-6 Rocket 4.1 05:15:06 10° NNW 05:20:33 89° WSW 05:25:58 10° SSE
Cosmos 1408 Rocket 3.6 05:16:22 10° S 05:20:50 85° E 05:25:19 10° NNE
Meteor 1-4 Rocket 3.2 05:25:01 29° WNW 05:25:36 31° W 05:28:41 10° SSW
Cosmos 1437 Rocket 3.5 05:21:57 10° N 05:25:43 50° ENE 05:29:24 10° SSE
Cosmos 2184 Rocket 4.2 05:21:43 10° S 05:28:01 79° E 05:34:25 10° NNE
ERBS 3.4 05:24:56 10° SW 05:28:03 41° SSE 05:31:12 10° ENE
USA 305 3.2 05:28:18 17° WSW 05:31:28 65° S 05:35:45 10° E
NOAA 6 4.4 05:28:07 10° NNE 05:33:16 70° ESE 05:38:22 10° S
Cosmos 2228 Rocket 3.0 05:29:09 10° NNW 05:33:39 88° WSW 05:38:04 10° S
Lacrosse 5 3.9 05:30:58 10° SSW 05:35:16 29° SE 05:39:36 10° ENE
ATLAS 3B R/B 2.9 05:30:53 17° WNW 05:36:11 57° SW 05:43:07 10° SSE
SJ-12 4.4 05:32:43 10° N 05:36:28 36° WNW 05:40:12 10° SW
ATLAS 5 CENTAUR R/B 1.5 05:33:25 12° WSW 05:37:52 58° NNW 05:40:07 10° ENE
ALOS 3.2 05:34:14 10° N 05:38:05 26° WNW 05:41:54 10° WSW
Cosmos 1680 Rocket 3.9 05:34:48 13° NW 05:39:11 44° WSW 05:44:12 10° S
USA 306 3.2 05:36:06 15° WSW 05:39:35 66° S 05:43:51 10° E
Cosmos 1777 Rocket 4.2 05:36:33 10° SW 05:41:33 46° NW 05:46:37 10° NNE
NOSS 2-2 (D) 4.1 05:39:18 20° WNW 05:41:36 39° NNW 05:46:08 10° NE
Meteor 1-10 Rocket 4.1 05:39:23 10° NNW 05:44:57 74° W 05:50:30 10° S
H-2A R/B 2.8 05:41:08 10° N 05:44:59 56° WNW 05:48:49 10° SSW
Cosmos 2297 Rocket 3.4 05:43:07 16° WNW 05:46:08 24° NNW 05:50:43 10° NNE
Cosmos 1844 Rocket 4.0 05:40:57 10° S 05:46:16 44° ESE 05:51:39 10° NE
Meteor 1-27 Rocket 3.9 05:41:47 10° NNW 05:47:30 80° ENE 05:53:19 10° SSE
deb Chang Zheng 4 4.5 05:45:06 10° N 05:48:47 27° WNW 05:52:27 10° WSW
USA 229 DEB 4.3 05:44:05 15° WNW 05:49:49 50° NNE 05:57:01 10° E
USA 229 4.3 05:44:11 15° WNW 05:49:55 50° NNE 05:57:06 10° E
Cosmos 1484 Rocket 4.4 05:48:23 10° NNW 05:50:16 15° NW 05:50:16 15° NW
YAOGAN 6 2.4 05:51:11 10° N 05:54:43 65° WNW 05:58:11 10° SSW
H-2A R/B 2.2 05:51:10 10° NNE 05:55:09 78° WNW 05:59:00 10° SSW
Cosmos 1862 3.4 05:51:40 10° S 05:55:43 86° E 05:59:49 10° NNE
Cosmos 1633 3.5 05:53:32 10° SW 05:56:32 25° WNW 05:59:33 10° N
SL-24 DEB 4.3 05:52:06 10° S 05:56:50 66° W 06:01:38 10° N
NOSS 3-4 (A) 3.6 05:50:54 10° SW 05:56:54 80° SE 06:03:29 10° NE
NOSS 3-4 (C) 3.6 05:51:02 10° SW 05:57:02 79° SE 06:03:36 10° NE
ATLAS CENTAUR R/B 1.6 05:54:33 15° WNW 05:57:19 45° SW 06:01:00 10° SSE
Meteor 2-3 Rocket 4.0 05:52:12 10° SW 05:57:43 47° WNW 06:03:19 10° N
Cosmos 1515 Rocket 4.4 05:56:18 10° NNW 06:00:12 30° W 06:04:06 10° SSW
NOSS 3-1 (A) 4.3 05:57:45 12° WNW 06:03:39 51° NNE 06:11:18 10° E
USA 234 3.9 05:57:24 10° ENE 06:03:54 60° SSE 06:10:21 10° SW
NOSS 3-1 (C) 4.2 05:59:31 12° WNW 06:05:45 57° NNE 06:13:37 10° E
Nadezhda 3 Rocket 4.1 06:00:38 10° NNW 06:06:53 60° W 06:13:01 10° S
Okean O Rocket 1.8 06:02:25 10° NNE 06:06:53 82° ESE 06:11:20 10° SSW
OPS 8737 4.4 06:04:57 13° NW 06:07:29 66° NNE 06:11:00 10° ESE
CZ-4C R/B 3.2 06:02:49 10° SSW 06:07:50 52° SE 06:13:54 10° NE
MOS 1 Rocket 4.3 06:04:24 10° SSW 06:08:30 28° W 06:12:50 10° NNW
NOAA 12 4.2 06:03:57 10° NNE 06:09:17 84° ESE 06:14:34 10° SSW
Cosmos 2263 Rocket 2.4 06:04:01 10° WSW 06:09:32 50° NW 06:15:07 10° NNE
DMSP B5D2-2 4.1 06:04:42 10° S 06:09:55 68° WSW 06:15:09 10° NNW
CENTAUR R/B 4.5 06:04:52 11° WNW 06:09:57 20° WSW 06:15:38 10° SSW
PSLV R/B 4.2 06:06:18 10° N 06:10:04 41° WNW 06:13:44 10° SW
CZ-4B R/B 3.2 06:06:37 10° NNE 06:11:58 85° ESE 06:17:21 10° SSW
Cosmos 2082 Rocket 3.0 06:09:32 10° NNW 06:15:03 47° NE 06:20:33 10° ESE
Cosmos 1707 Rocket 3.5 06:12:19 10° NNW 06:16:43 83° WSW 06:21:03 10° S
ATLAS 2AS CENTAUR R/B 3.2 06:09:05 10° SW 06:17:06 85° SE 06:24:52 10° NE
Cosmos 1898 Rocket 3.6 06:12:28 10° SSW 06:17:48 85° WNW 06:23:12 10° NNE
Aureole 2 Rocket 4.1 06:17:38 10° S 06:19:52 28° ESE 06:22:09 10° NE
COSMOS 2406 3.4 06:14:19 10° NW 06:20:05 81° NE 06:25:52 10° SE
Cosmos 1782 4.5 06:18:41 10° NW 06:21:04 15° W 06:23:27 10° WSW
RESURS DK-1 2.9 06:17:00 10° SSW 06:21:08 65° ESE 06:25:17 10° NE
Envisat 3.2 06:16:54 10° N 06:21:50 51° WNW 06:26:45 10° SW
FALCON 9 DEB 3.9 06:21:03 10° WSW 06:24:26 51° S 06:27:49 10° ESE
SL-4 R/B 2.9 06:23:18 10° WSW 06:26:55 41° S 06:30:18 10° ESE
Lacrosse 4 Rocket 3.6 06:26:14 10° W 06:27:18 11° WSW 06:28:22 10° WSW
NOSS 2-2 (C) 4.5 06:24:29 10° WNW 06:28:12 34° N 06:32:54 10° ENE
Cosmos 1500 Rocket 3.9 06:26:30 10° SW 06:30:38 43° WNW 06:34:48 10° N
CZ-2C R/B 3.1 06:25:31 10° SSW 06:30:44 42° W 06:35:52 10° NNW
H-2A R/B 4.2 06:26:28 10° NNE 06:30:49 29° E 06:35:04 10° SSE
CORIOLIS 4.2 06:26:26 10° NNE 06:31:55 79° WNW 06:37:22 10° SSW
SMAP 3.1 06:29:16 10° N 06:33:51 57° WNW 06:38:25 10° SW
USA 307 3.3 06:29:37 10° W 06:33:55 66° S 06:38:12 10° ESE
Cosmos 2154 Rocket 4.1 06:28:10 10° SSW 06:34:18 60° WNW 06:40:32 10° N
Cosmos 1833 Rocket 2.8 06:30:45 10° NW 06:36:27 85° ENE 06:42:05 10° SE
